Location: Newark
(7.0858°N, 171.3717°E)
Time: 09:16:55
(UTC+00:00)

S-56A Canister/Altair - Pass Details

Date: 01 December 2020
Orbit: 633 x 2499 km, 38.9° (Epoch: 27 January)

Event Time Altitude Azimuth Distance (km) Brightness Sun altitude
Rises 14:50:52 0° 314° (NW) 3,172 - -51.6°
Reaches altitude 10° 14:53:26 10° 317° (NW) 2,123 - -51.0°
Maximum altitude 14:58:03 66° 40° (NE) 688 - -50.0°
Drops below altitude 10° 15:02:30 10° 123° (ESE) 2,043 - -49.0°
Exits shadow 15:04:22 - 125° (SE) 2,810 11.1 -48.6°
Sets 15:04:55 0° 125° (SE) 3,040 11.3 -48.4°
